Location: Antoign�
(47.0844°N, 0.1131°W)
Time: 23:57:54
(UTC+00:00)

Cosmos 1980 Rocket - Pass Details

Date: 03 March 2021
Orbit: 828 x 851 km, 71.0° (Epoch: 20 April)

Event Time Altitude Azimuth Distance (km) Brightness Sun altitude
Rises 18:53:16 0° 243° (WSW) 3,392 6.5 -11.7°
Reaches altitude 10° 18:56:06 10° 256° (WSW) 2,464 5.9 -12.2°
Maximum altitude 19:00:50 27° 313° (NW) 1,592 4.3 -13.0°
Drops below altitude 10° 19:05:36 10° 10° (N) 2,485 4.6 -13.8°
Sets 19:08:28 0° 22° (NNE) 3,426 5.2 -14.3°
